Weather History for K5SM - November, 2013

Change the Weather History Date:

Sunday, November 10, 2013

  Actual Average (KRIL) Record (KRIL)
Temperature  
Mean Temperature 38 °F 38 °F  
Max Temperature 44 °F 51 °F 74 °F (1980)
Min Temperature 32 °F 25 °F -1 °F (1950)
Degree Days  
Heating Degree Days 27 27  
Month to date heating degree days 249  
Since 1 July heating degree days 893  
Cooling Degree Days 0 0  
Month to date cooling degree days 0  
Year to date cooling degree days 541  
Moisture  
Dew Point 18 °F    
Average Humidity 49    
Maximum Humidity 65    
Minimum Humidity 36    
Precipitation  
Precipitation 0.00 in 0.05 in 0.55 in (1915)
Month to date precipitation 0.50  
Year to date precipitation 12.86  
Sea Level Pressure  
Sea Level Pressure 30.47 in    
Wind  
Wind Speed 0 mph (SW)    
Max Wind Speed 4 mph    
Max Gust Speed -    
Visibility 10 miles    
Events      
T = Trace of Precipitation, MM = Missing Value Source: NWS Daily Summary

Daily Weather History Graph

Daily Weather History Graph

Search for Another Location

Airport or City:

Trip Planner

Search our weather history database for the weather conditions in past years. The results will help you decide how hot, cold, wet, or windy it might be!

Date:

Astronomy

Nov. 10, 2013 Rise Set
Actual Time 6:48 AM MST 4:58 PM MST
Civil Twilight 6:19 AM MST 5:26 PM MST
Nautical Twilight 5:47 AM MST 5:59 PM MST
Astronomical Twilight 5:15 AM MST 6:30 PM MST
Moon 1:03 PM MST (11/10) No Moon Set
Length of Visible Light 11h 07m
Length of Day
10h 10m
First Quarter, 56% of the Moon is Illuminated
Nov 10
First Quarter
Nov 17
Full
Nov 25
Last Quarter
Dec 2
New
Dec 9
First Quarter

Hourly Weather History & Observations

Time (MST) Temp. Windchill Dew Point Humidity Pressure Visibility Wind Dir Wind Speed Gust Speed Precip Events Conditions
12:00 AM 33.8 °F - 17.6 °F 52% 30.44 in 10.0 mi Calm Calm - N/A   Clear
12:21 AM 32.0 °F - 17.6 °F 55% 30.44 in 10.0 mi Calm Calm - N/A   Clear
12:41 AM 32.0 °F - 17.6 °F 55% 30.44 in 10.0 mi Calm Calm - N/A   Clear
1:01 AM 32.0 °F - 17.6 °F 55% 30.44 in 10.0 mi Calm Calm - N/A   Clear
1:21 AM 32.0 °F - 17.6 °F 55% 30.44 in 10.0 mi Calm Calm - N/A   Clear
1:40 AM 32.0 °F - 17.6 °F 55% 30.44 in 10.0 mi Calm Calm - N/A   Clear
2:00 AM 32.0 °F - 17.6 °F 55% 30.44 in 10.0 mi Calm Calm - N/A   Clear
2:21 AM 32.0 °F - 17.6 °F 55% 30.44 in 10.0 mi Calm Calm - N/A   Clear
2:40 AM 32.0 °F 28.7 °F 17.6 °F 55% 30.45 in 10.0 mi SW 3.5 mph - N/A   Clear
3:01 AM 32.0 °F - 17.6 °F 55% 30.44 in 10.0 mi Calm Calm - N/A   Clear
3:21 AM 32.0 °F - 17.6 °F 55% 30.45 in 10.0 mi Calm Calm - N/A   Clear
3:41 AM 33.8 °F - 17.6 °F 52% 30.45 in 10.0 mi Calm Calm - N/A   Clear
4:01 AM 32.0 °F - 17.6 °F 55% 30.45 in 10.0 mi Calm Calm - N/A   Clear
4:21 AM 32.0 °F - 17.6 °F 55% 30.45 in 10.0 mi Calm Calm - N/A   Clear
4:41 AM 33.8 °F - 17.6 °F 52% 30.46 in 10.0 mi Calm Calm - N/A   Clear
5:01 AM 33.8 °F - 17.6 °F 52% 30.46 in 10.0 mi Calm Calm - N/A   Clear
5:21 AM 33.8 °F - 17.6 °F 52% 30.46 in 10.0 mi Calm Calm - N/A   Clear
5:41 AM 33.8 °F - 15.8 °F 48% 30.46 in 10.0 mi Calm Calm - N/A   Clear
6:01 AM 33.8 °F - 14.0 °F 44% 30.46 in 10.0 mi Calm Calm - N/A   Clear
6:21 AM 33.8 °F - 15.8 °F 48% 30.47 in 10.0 mi Calm Calm - N/A   Clear
6:41 AM 33.8 °F - 14.0 °F 44% 30.47 in 10.0 mi Calm Calm - N/A   Clear
7:01 AM 33.8 °F - 14.0 °F 44% 30.47 in 10.0 mi Calm Calm - N/A   Clear
7:21 AM 33.8 °F - 15.8 °F 48% 30.47 in 10.0 mi Calm Calm - N/A   Clear
7:41 AM 33.8 °F - 14.0 °F 44% 30.48 in 10.0 mi Calm Calm - N/A   Clear
8:01 AM 35.6 °F - 14.0 °F 41% 30.49 in 10.0 mi Calm Calm - N/A   Clear
8:21 AM 35.6 °F - 14.0 °F 41% 30.49 in 10.0 mi Calm Calm - N/A   Clear
8:41 AM 37.4 °F - 14.0 °F 38% 30.50 in 10.0 mi Calm Calm - N/A   Clear
9:01 AM 37.4 °F - 14.0 °F 38% 30.50 in 10.0 mi Calm Calm - N/A   Clear
9:21 AM 37.4 °F - 15.8 °F 41% 30.49 in 10.0 mi Calm Calm - N/A   Clear
9:41 AM 39.2 °F - 15.8 °F 39% 30.49 in 10.0 mi Calm Calm - N/A   Clear
10:01 AM 41.0 °F - 17.6 °F 39% 30.50 in 10.0 mi Calm Calm - N/A   Clear
10:20 AM 41.0 °F - 15.8 °F 36% 30.50 in 10.0 mi Calm Calm - N/A   Clear
10:40 AM 41.0 °F - 17.6 °F 39% 30.50 in 10.0 mi Calm Calm - N/A   Clear
11:01 AM 42.8 °F - 17.6 °F 36% 30.49 in 10.0 mi Calm Calm - N/A   Clear
11:21 AM 42.8 °F - 17.6 °F 36% 30.49 in 10.0 mi Calm Calm - N/A   Clear
11:41 AM 42.8 °F - 17.6 °F 36% 30.48 in 10.0 mi Calm Calm - N/A   Clear
12:01 PM 42.8 °F - 17.6 °F 36% 30.48 in 10.0 mi Calm Calm - N/A   Clear
12:21 PM 42.8 °F - 17.6 °F 36% 30.47 in 10.0 mi Calm Calm - N/A   Clear
12:41 PM 42.8 °F - 17.6 °F 36% 30.47 in 10.0 mi Calm Calm - N/A   Clear
1:01 PM 42.8 °F 41.1 °F 17.6 °F 36% 30.46 in 10.0 mi WSW 3.5 mph - N/A   Clear
1:21 PM 44.6 °F - 19.4 °F 37% 30.46 in 10.0 mi Calm Calm - N/A   Clear
1:42 PM 42.8 °F - 19.4 °F 39% 30.46 in 10.0 mi Calm Calm - N/A   Clear
2:02 PM 44.6 °F - 21.2 °F 39% 30.45 in 10.0 mi Calm Calm - N/A   Clear
2:22 PM 42.8 °F - 21.2 °F 42% 30.46 in 10.0 mi Calm Calm - N/A   Clear
2:42 PM 42.8 °F - 21.2 °F 42% 30.45 in 10.0 mi Calm Calm - N/A   Clear
3:02 PM 42.8 °F - 21.2 °F 42% 30.45 in 10.0 mi Calm Calm - N/A   Clear
3:20 PM 41.0 °F 39.0 °F 21.2 °F 45% 30.45 in 10.0 mi SW 3.5 mph - N/A   Clear
3:40 PM 41.0 °F - 21.2 °F 45% 30.45 in 10.0 mi Calm Calm - N/A   Clear
4:02 PM 41.0 °F - 21.2 °F 45% 30.45 in 10.0 mi Calm Calm - N/A   Clear
4:22 PM 37.4 °F - 21.2 °F 52% 30.46 in 10.0 mi Calm Calm - N/A   Clear
4:42 PM 37.4 °F - 21.2 °F 52% 30.46 in 10.0 mi Calm Calm - N/A   Clear
5:02 PM 35.6 °F - 23.0 °F 60% 30.46 in 10.0 mi Calm Calm - N/A   Clear
5:22 PM 33.8 °F - 23.0 °F 65% 30.46 in 10.0 mi Calm Calm - N/A   Clear
5:41 PM 33.8 °F 30.8 °F 21.2 °F 60% 30.46 in 10.0 mi SW 3.5 mph - N/A   Clear
6:01 PM 33.8 °F - 21.2 °F 60% 30.46 in 10.0 mi Calm Calm - N/A   Clear
6:22 PM 32.0 °F - 21.2 °F 64% 30.47 in 10.0 mi Calm Calm - N/A   Clear
6:42 PM 32.0 °F - 19.4 °F 60% 30.47 in 10.0 mi Calm Calm - N/A   Clear
7:01 PM 32.0 °F - 21.2 °F 64% 30.48 in 10.0 mi Calm Calm - N/A   Clear
7:22 PM 32.0 °F - 19.4 °F 60% 30.48 in 10.0 mi Calm Calm - N/A   Clear
7:42 PM 32.0 °F - 19.4 °F 60% 30.48 in 10.0 mi Calm Calm - N/A   Clear
8:01 PM 32.0 °F - 19.4 °F 60% 30.48 in 10.0 mi Calm Calm - N/A   Clear
8:22 PM 32.0 °F - 19.4 °F 60% 30.48 in 10.0 mi Calm Calm - N/A   Clear
8:42 PM 32.0 °F - 17.6 °F 55% 30.49 in 10.0 mi Calm Calm - N/A   Clear
9:02 PM 32.0 °F - 17.6 °F 55% 30.49 in 10.0 mi Calm Calm - N/A   Clear
9:21 PM 32.0 °F - 17.6 °F 55% 30.49 in 10.0 mi Calm Calm - N/A   Clear
9:42 PM 32.0 °F - 17.6 °F 55% 30.49 in 10.0 mi Calm Calm - N/A   Clear
10:02 PM 32.0 °F - 17.6 °F 55% 30.49 in 10.0 mi Calm Calm - N/A   Clear
10:22 PM 32.0 °F - 17.6 °F 55% 30.49 in 10.0 mi Calm Calm - N/A   Clear
10:42 PM 32.0 °F - 17.6 °F 55% 30.49 in 10.0 mi Calm Calm - N/A   Clear
11:02 PM 32.0 °F - 17.6 °F 55% 30.49 in 10.0 mi Calm Calm - N/A   Clear
11:22 PM 32.0 °F - 17.6 °F 55% 30.49 in 10.0 mi Calm Calm - N/A   Clear
11:42 PM 32.0 °F - 17.6 °F 55% 30.49 in 10.0 mi Calm Calm - N/A   Clear